Flag for U.S.A. Weather past 2 weeks in Durham, North Carolina, U.S.A.

Now
39 °F

Passing clouds.


Feels Like: 39 °F
Forecast: 33 / 49 °F
Wind: No wind

Location: Raleigh-Durham International Airport

Current Time: Dec 18, 2014 at 12:41:25 AM

Latest Report: Dec 17, 2014 at 11:51 PM


Visibility: 10 mi

Pressure: 30.08 "Hg

Humidity: 82%

Dew point: 34 °F

Location of DurhamLocation

Historic Weather in Durham — Graph

°F

Durham temperature yesterday

Maximum temperature yesterday: 59 °F (at 1:51 PM)
Minimum temperature yesterday: 40 °F (at 6:51 AM)
Average temperature yesterday: 49 °F

Past Weeks' High & Low Weather Summary

 TemperatureHumidityPressure
High60 °F (Dec 13, 2:51 PM)93% (Dec 2, 11:51 PM)30.49 "Hg (Dec 2, 11:51 PM)
Low26 °F (Dec 12, 6:51 AM)20% (Dec 12, 2:51 PM)29.90 "Hg (Dec 16, 1:51 PM)
Average44 °F67%30.16 "Hg
* Reported Dec 2 10:51 PM — Dec 17 10:51 PM, Durham, Weather by CustomWeather, © 2014

Note: Actual official high and low records may vary slightly from our data, if they occured in-between our weather recording intervals... More about our weather records

Advertising

Durham weather history for previous 24 hours

 ConditionsComfort  
Time TempWeatherWind HumidityBarometerVisibility
10:51 PM
Dec 17
41 °FPassing clouds.No wind76%30.08 "Hg10 mi
9:51 PM41 °FPassing clouds.No wind80%30.08 "Hg10 mi
8:51 PM44 °FPassing clouds.No wind73%30.08 "Hg10 mi
7:51 PM46 °FPassing clouds.No wind68%30.07 "Hg10 mi
6:51 PM49 °FPassing clouds.No wind61%30.06 "Hg10 mi
5:51 PM49 °FPassing clouds.No wind61%30.05 "Hg10 mi
4:51 PM55 °FScattered clouds.3 mph45%30.04 "Hg10 mi
3:51 PM58 °FScattered clouds.5 mph43%30.02 "Hg10 mi
2:51 PM59 °FScattered clouds.7 mph42%30.03 "Hg10 mi
1:51 PM59 °FScattered clouds.5 mph42%30.03 "Hg10 mi
12:51 PM58 °FScattered clouds.7 mph46%30.06 "Hg10 mi
11:51 AM56 °FScattered clouds.7 mph49%30.09 "Hg10 mi
10:51 AM54 °FScattered clouds.8 mph53%30.11 "Hg10 mi
9:51 AM51 °FScattered clouds.7 mph61%30.12 "Hg10 mi
8:51 AM46 °FScattered clouds.5 mph73%30.11 "Hg10 mi
7:51 AM41 °FScattered clouds.3 mph80%30.09 "Hg10 mi
6:51 AM40 °FClear.5 mph80%30.07 "Hg10 mi
5:51 AM44 °FClear.6 mph73%30.06 "Hg10 mi
4:51 AM45 °FClear.7 mph74%30.04 "Hg10 mi
3:51 AM44 °FClear.3 mph76%30.03 "Hg10 mi
2:51 AM46 °FClear.6 mph73%30.01 "Hg10 mi
1:51 AM46 °FClear.3 mph77%30.00 "Hg10 mi
12:51 AM46 °FClear.No wind79%29.99 "Hg10 mi
Weather by CustomWeather, © 2014

See weather overviewHow to use our weather pages